This is the latest recevied weather packets stored in our database for station/object KD7JB. If no packets are shown the sender has not sent any weather packets the latest 10 day(s).
| Time | Temp. | Humidity | Pressure | Rain* | Wind** | Luminosity | Snow |
|---|---|---|---|---|---|---|---|
| 1777409680 | 10.56° C | 54% | 1178.7 hPa | 0 mm | - | 659 W/m² | - |
| 1777409377 | 10° C | 56% | 1178.5 hPa | 0 mm | - | 490 W/m² | - |
| 1777409073 | 10.56° C | 56% | 1178.7 hPa | 0 mm | - | 428 W/m² | - |
| 1777408770 | 10° C | 57% | 1178.5 hPa | 0 mm | - | 558 W/m² | - |
| 1777408466 | 10° C | 58% | 1178.4 hPa | 0 mm | - | 531 W/m² | - |
| 1777408161 | 10° C | 55% | 1178.3 hPa | 0 mm | - | 399 W/m² | - |
| 1777407856 | 10° C | 54% | 1178.4 hPa | 0 mm | - | 388 W/m² | - |
| 1777407554 | 10° C | 54% | 1178.4 hPa | 0 mm | - | 465 W/m² | - |
| 1777407253 | 10° C | 54% | 1178.4 hPa | 0 mm | - | 710 W/m² | - |
| 1777406947 | 10° C | 55% | 1178.3 hPa | 0 mm | - | 523 W/m² | - |
| 1777406648 | 10.56° C | 56% | 1178.4 hPa | 0 mm | - | 419 W/m² | - |
| 1777406344 | 10° C | 54% | 1178.4 hPa | 0 mm | - | 447 W/m² | - |
| 1777406043 | 10° C | 55% | 1178.3 hPa | 0 mm | - | 498 W/m² | - |
| 1777405740 | 10° C | 55% | 1178.4 hPa | 0 mm | - | 552 W/m² | - |
| 1777405436 | 10° C | 55% | 1178.3 hPa | 0 mm | - | 482 W/m² | - |
| 1777405134 | 10° C | 55% | 1178.3 hPa | 0 mm | - | 522 W/m² | - |
| 1777404832 | 10° C | 56% | 1178.4 hPa | 0 mm | - | 505 W/m² | - |
| 1777404529 | 10° C | 57% | 1178.2 hPa | 0 mm | - | 583 W/m² | - |
| 1777404224 | 10° C | 57% | 1178.7 hPa | 0 mm | - | 534 W/m² | - |
| 1777403921 | 10° C | 55% | 1178.3 hPa | 0 mm | - | 564 W/m² | - |
| 1777403620 | 9.44° C | 56% | 1178.3 hPa | 0 mm | - | 522 W/m² | - |
| 1777403315 | 9.44° C | 55% | 1178.2 hPa | 0 mm | - | 549 W/m² | - |
| 1777403010 | 10° C | 55% | 1178.4 hPa | 0 mm | - | 491 W/m² | - |
| 1777402706 | 10.56° C | 55% | 1178.3 hPa | 0 mm | - | 493 W/m² | - |
| 1777402406 | 10.56° C | 55% | 1178.3 hPa | 0 mm | - | 703 W/m² | - |
* Rain latest hour (hover to see other rain measurements)
** Current wind speed in m/s (hover to see current wind gust speed)